| time (UTC) | temp F | wind direction | speed MPH | gust MPH | rain 1hr in | rain 24hr in | rain mn in | humidity % | barometer mb |
| 20260510023033 | 64 | 45 | 4.0 | 5.0 | 0.00 | 0.00 | 0.00 | 36 | 1019.7 |
| 20260510021535 | 66 | 45 | 3.0 | 6.0 | 0.00 | 0.00 | 0.00 | 34 | 1019.7 |
| 20260510020033 | 68 | 45 | 3.0 | 5.0 | 0.00 | 0.00 | 0.00 | 31 | 1019.7 |
| 20260510014533 | 71 | 42 | 3.0 | 8.0 | 0.00 | 0.00 | 0.00 | 29 | 1019.9 |
| 20260510013105 | 72 | 32 | 4.0 | 8.0 | 0.00 | 0.00 | 0.00 | 29 | 1020.0 |
| 20260510011530 | 73 | 35 | 4.0 | 9.0 | 0.00 | 0.00 | 0.00 | 28 | 1020.0 |
| 20260510010030 | 74 | 40 | 5.0 | 10.0 | 0.00 | 0.00 | 0.00 | 27 | 1020.1 |
| 20260510004606 | 75 | 44 | 6.0 | 11.0 | 0.00 | 0.00 | 0.00 | 27 | 1020.0 |
| 20260510001530 | 75 | 49 | 5.0 | 11.0 | 0.00 | 0.00 | 0.00 | 28 | 1020.2 |
| 20260510000036 | 76 | 45 | 7.0 | 14.0 | 0.00 | 0.00 | 0.00 | 28 | 1020.4 |
| 20260509234535 | 76 | 40 | 6.0 | 13.0 | 0.00 | 0.00 | 0.00 | 29 | 1020.5 |
| 20260509233030 | 77 | 49 | 6.0 | 12.0 | 0.00 | 0.00 | 0.00 | 29 | 1020.6 |
| 20260509231643 | 76 | 52 | 5.0 | 12.0 | 0.00 | 0.00 | 0.00 | 29 | 1020.8 |
| 20260509230107 | 76 | 46 | 6.0 | 11.0 | 0.00 | 0.00 | 0.00 | 30 | 1021.1 |
| 20260509224536 | 75 | 46 | 5.0 | 9.0 | 0.00 | 0.00 | 0.00 | 31 | 1021.2 |
| 20260509221536 | 74 | 49 | 5.0 | 10.0 | 0.00 | 0.00 | 0.00 | 33 | 1021.6 |
| 20260509220037 | 74 | 52 | 6.0 | 13.0 | 0.00 | 0.00 | 0.00 | 34 | 1021.8 |
| 20260509214533 | 72 | 63 | 5.0 | 9.0 | 0.00 | 0.00 | 0.00 | 35 | 1021.9 |
| 20260509213030 | 73 | 50 | 6.0 | 11.0 | 0.00 | 0.00 | 0.00 | 35 | 1022.1 |
| 20260509211533 | 73 | 43 | 6.0 | 12.0 | 0.00 | 0.00 | 0.00 | 37 | 1022.4 |
| 20260509203035 | 72 | 45 | 4.0 | 10.0 | 0.00 | 0.00 | 0.00 | 40 | 1022.9 |
| 20260509200034 | 71 | 57 | 5.0 | 11.0 | 0.00 | 0.00 | 0.00 | 42 | 1023.3 |
| 20260509194530 | 71 | 62 | 6.0 | 12.0 | 0.00 | 0.00 | 0.00 | 41 | 1023.4 |
| 20260509184531 | 69 | 63 | 5.0 | 11.0 | 0.00 | 0.00 | 0.00 | 45 | 1024.0 |
| 20260509181531 | 68 | 55 | 5.0 | 10.0 | 0.00 | 0.00 | 0.00 | 47 | 1024.1 |
| 20260509180033 | 67 | 41 | 4.0 | 10.0 | 0.00 | 0.00 | 0.00 | 48 | 1024.1 |
| 20260509174535 | 65 | 45 | 5.0 | 10.0 | 0.00 | 0.00 | 0.00 | 50 | 1024.1 |
| 20260509171530 | 64 | 57 | 5.0 | 9.0 | 0.00 | 0.00 | 0.00 | 52 | 1024.3 |
| 20260509170032 | 63 | 62 | 4.0 | 10.0 | 0.00 | 0.00 | 0.00 | 53 | 1024.3 |
| 20260509163032 | 62 | 61 | 4.0 | 9.0 | 0.00 | 0.00 | 0.00 | 56 | 1024.5 |
| 20260509161530 | 61 | 49 | 3.0 | 7.0 | 0.00 | 0.00 | 0.00 | 58 | 1024.7 |
| 20260509160030 | 60 | 18 | 2.0 | 4.0 | 0.00 | 0.00 | 0.00 | 59 | 1024.7 |
| 20260509154535 | 59 | 37 | 1.0 | 6.0 | 0.00 | 0.00 | 0.00 | 62 | 1024.6 |
| 20260509151536 | 57 | 174 | 0.0 | 3.0 | 0.00 | 0.00 | 0.00 | 67 | 1024.6 |
| 20260509150030 | 55 | 244 | 0.0 | 3.0 | 0.00 | 0.00 | 0.00 | 71 | 1024.7 |
| 20260509144533 | 52 | 247 | 2.0 | 5.0 | 0.00 | 0.00 | 0.00 | 75 | 1024.7 |
| 20260509140030 | 45 | 251 | 4.0 | 7.0 | 0.00 | 0.00 | 0.00 | 82 | 1024.5 |
| 20260509134534 | 44 | 252 | 4.0 | 7.0 | 0.00 | 0.00 | 0.00 | 83 | 1024.4 |
| 20260509133034 | 43 | 252 | 4.0 | 5.0 | 0.00 | 0.00 | 0.00 | 84 | 1024.2 |
| 20260509131534 | 42 | 240 | 4.0 | 6.0 | 0.00 | 0.00 | 0.00 | 85 | 1024.1 |
| 20260509124536 | 43 | 206 | 4.0 | 6.0 | 0.00 | 0.00 | 0.00 | 84 | 1023.9 |
| 20260509123034 | 43 | 200 | 4.0 | 6.0 | 0.00 | 0.00 | 0.00 | 83 | 1023.9 |
| 20260509121606 | 44 | 214 | 4.0 | 5.0 | 0.00 | 0.00 | 0.00 | 83 | 1024.0 |
| 20260509120030 | 44 | 206 | 4.0 | 5.0 | 0.00 | 0.00 | 0.00 | 83 | 1024.0 |
| 20260509114531 | 44 | 225 | 5.0 | 7.0 | 0.00 | 0.00 | 0.00 | 83 | 1024.0 |
| 20260509113029 | 44 | 220 | 5.0 | 7.0 | 0.00 | 0.00 | 0.00 | 83 | 1023.9 |
| 20260509111532 | 44 | 203 | 4.0 | 7.0 | 0.00 | 0.00 | 0.00 | 82 | 1023.9 |
| 20260509110035 | 44 | 217 | 5.0 | 7.0 | 0.00 | 0.00 | 0.00 | 81 | 1024.0 |
| 20260509104607 | 45 | 201 | 4.0 | 7.0 | 0.00 | 0.00 | 0.00 | 81 | 1023.9 |
| 20260509103034 | 45 | 193 | 5.0 | 8.0 | 0.00 | 0.00 | 0.00 | 81 | 1024.0 |
| 20260509101534 | 44 | 223 | 5.0 | 8.0 | 0.00 | 0.00 | 0.00 | 81 | 1023.9 |
| 20260509100034 | 44 | 225 | 4.0 | 6.0 | 0.00 | 0.00 | 0.00 | 81 | 1024.0 |
| 20260509094530 | 44 | 236 | 4.0 | 6.0 | 0.00 | 0.00 | 0.00 | 80 | 1024.1 |
| 20260509091531 | 45 | 192 | 4.0 | 7.0 | 0.00 | 0.00 | 0.00 | 79 | 1024.3 |
| 20260509081530 | 48 | 216 | 4.0 | 7.0 | 0.00 | 0.00 | 0.00 | 72 | 1024.8 |
| 20260509080031 | 48 | 273 | 5.0 | 8.0 | 0.00 | 0.00 | 0.00 | 72 | 1024.8 |
| 20260509074607 | 48 | 248 | 4.0 | 9.0 | 0.00 | 0.00 | 0.00 | 73 | 1024.9 |
| 20260509073104 | 49 | 189 | 3.0 | 7.0 | 0.00 | 0.00 | 0.00 | 71 | 1025.0 |
| 20260509071531 | 51 | 201 | 3.0 | 8.0 | 0.00 | 0.00 | 0.00 | 67 | 1024.7 |
| 20260509070032 | 52 | 279 | 5.0 | 12.0 | 0.00 | 0.00 | 0.00 | 66 | 1024.5 |
| 20260509064531 | 53 | 288 | 9.0 | 18.0 | 0.00 | 0.00 | 0.00 | 65 | 1024.2 |
| 20260509063107 | 53 | 293 | 12.0 | 22.0 | 0.00 | 0.00 | 0.00 | 65 | 1024.1 |
| 20260509061534 | 53 | 298 | 12.0 | 23.0 | 0.00 | 0.00 | 0.00 | 66 | 1024.4 |
| 20260509060032 | 53 | 303 | 9.0 | 18.0 | 0.00 | 0.00 | 0.00 | 66 | 1024.6 |
| 20260509054532 | 52 | 316 | 4.0 | 9.0 | 0.00 | 0.00 | 0.00 | 65 | 1024.9 |
| 20260509051535 | 53 | 317 | 4.0 | 9.0 | 0.00 | 0.00 | 0.00 | 63 | 1024.8 |
| 20260509050033 | 54 | 310 | 5.0 | 14.0 | 0.00 | 0.00 | 0.00 | 62 | 1024.6 |
| 20260509044531 | 54 | 314 | 5.0 | 11.0 | 0.00 | 0.00 | 0.00 | 61 | 1024.4 |
| 20260509043036 | 55 | 318 | 7.0 | 15.0 | 0.00 | 0.00 | 0.00 | 59 | 1024.1 |
| 20260509041531 | 55 | 319 | 6.0 | 15.0 | 0.00 | 0.00 | 0.00 | 58 | 1023.9 |
| 20260509040031 | 56 | 310 | 9.0 | 20.0 | 0.00 | 0.00 | 0.00 | 56 | 1023.6 |
| 20260509034532 | 56 | 304 | 11.0 | 20.0 | 0.00 | 0.00 | 0.00 | 54 | 1023.3 |
| 20260509033037 | 57 | 311 | 9.0 | 21.0 | 0.00 | 0.00 | 0.00 | 52 | 1023.0 |
| 20260509031536 | 58 | 323 | 8.0 | 18.0 | 0.00 | 0.00 | 0.00 | 50 | 1022.9 |
| 20260509030142 | 58 | 335 | 8.0 | 15.0 | 0.00 | 0.00 | 0.00 | 48 | 1022.7 |